User: anonymous   Login
Location: Vanderbilt Beach
(26.2700°N, 81.7900°W)
Time: 18:51:59
(UTC-04:00)
Language:

JY1SAT - Orbit

View from above orbital plane
View from above orbital plane
View from above satellite
View from above satellite

Ground track
Ground track

The orbit data is extracted from the following two-line orbital elements,

1 43803U 18099AX  24109.39691226  .00014878  00000-0  10257-2 0  9994
2 43803  97.5252 169.4394 0011364 143.4682 216.7323 15.05867088293690
Epoch (UTC): 18 April 2024 09:31:33
Eccentricity: 0.0011364
inclination: 97.5252°
perigee height: 541 km
apogee height: 557 km
right ascension of ascending node: 169.4394°
argument of perigee: 143.4682°
revolutions per day: 15.05867088
mean anomaly at epoch: 216.7323°
orbit number at epoch: 29369

The dashed part of the orbit path shows where the satellite is in the earth's shadow,  

DLR